This demonstration page uses our WeatherBlox Daily Observations layout. Learn more.

38.89511, -77.03637

Hourly Observations for July 31, 2015

Temp ( °F °C ) Dew Point ( °F °C ) Humidity (%) Winds ( mph kmh ) Pressure ( in mb ) Visibility ( mi km ) Precip ( " mm )
12:52 am 00:52 Mostly Clear 80 26.7 70 21.1 71 71 Calm 29.91 1013 10 16.0934 0 0
1:52 am 01:52 Clear 81 27.2 62 16.7 53 53 NW 13 20 29.9 1012 10 16.0934 0 0
2:52 am 02:52 Clear 78 25.6 62 16.7 58 58 NNW 9 15 29.91 1013 10 16.0934 0 0
3:52 am 03:52 Clear 76 24.4 62 16.7 62 62 NNW 8 13 29.92 1013 10 16.0934 0 0
4:52 am 04:52 Clear 76 24.4 62 16.7 62 62 NNW 8 13 29.92 1013 10 16.0934 0 0
5:52 am 05:52 Mostly Clear 74 23.3 62 16.7 67 67 N 7 11 29.92 1013 10 16.0934 0 0
6:52 am 06:52 Mostly Sunny 76 24.4 62 16.7 62 62 NNW 8 13 29.93 1014 10 16.0934 0 0
7:52 am 07:52 Mostly Sunny 80 26.7 61 16.1 52 52 N 7 11 29.95 1014 10 16.0934 0 0
8:52 am 08:52 Sunny 82 27.8 62 16.7 51 51 NNW 9 15 29.96 1015 10 16.0934 0 0
9:52 am 09:52 Sunny 85 29.4 61 16.1 45 45 WNW 10 17 29.96 1014 10 16.0934 0 0
10:52 am 10:52 Sunny 87 30.6 63 17.2 45 45 NNW 9 15 29.95 1014 10 16.0934 0 0
11:52 am 11:52 Partly Cloudy 88 31.1 61 16.1 40 40 VRB 6 9 29.95 1014 10 16.0934 0 0
12:52 pm 12:52 Partly Cloudy 90 32.2 59 15 35 35 NW 9 15 29.93 1014 10 16.0934 0 0
1:52 pm 13:52 Partly Cloudy 91 32.8 60 15.6 35 35 VRB 6 9 29.93 1013 10 16.0934 0 0
2:52 pm 14:52 Partly Cloudy 90 32.2 59 15 35 35 VRB 6 9 29.91 1013 10 16.0934 0 0
3:52 pm 15:52 Partly Cloudy 91 32.8 58 14.4 33 33 N 15 24 29.88 1012 10 16.0934 0 0
4:52 pm 16:52 Partly Cloudy 90 32.2 58 14.4 34 34 N 10 17 29.88 1012 10 16.0934 0 0
5:52 pm 17:52 Mostly Sunny 91 32.8 60 15.6 35 35 NNW 6 9 29.87 1011 10 16.0934 0 0
6:52 pm 18:52 Mostly Sunny 90 32.2 60 15.6 37 37 N 8 13 29.86 1011 10 16.0934 0 0
7:52 pm 19:52 Sunny 87 30.6 58 14.4 37 37 N 7 11 29.86 1011 10 16.0934 0 0
8:52 pm 20:52 Clear 86 30 59 15 40 40 WSW 6 9 29.87 1012 10 16.0934 0 0
9:52 pm 21:52 Clear 83 28.3 61 16.1 48 48 SW 5 7 29.88 1012 10 16.0934 0 0
10:52 pm 22:52 Clear 81 27.2 63 17.2 54 54 SW 6 9 29.9 1013 10 16.0934 0 0
11:52 pm 23:52 Clear 80 26.7 63 17.2 56 56 WSW 5 7 29.91 1013 10 16.0934 0 0

Powered by AerisWeather